Content
SEND FEEDBACK

Daily
Averages
Monthly
Summary
United States of America

ANN ARBOR, MICHIGAN


Home > North America > United States > Michigan
Elevation: 231 meters     Latitude: 42 17N     Longitude: 083 43W

WEATHER
 
SELECT A DAY
Number of Records: 203,193;   Date Range: 1/1/95 - 7/23/14
 
SHARE

PRINT THIS DATA

[ ← Previous Day ]
WEATHER ALMANAC - 21 JANUARY, 2013
[ Next Day → ]
[ °F ]   °C
Weather ElementAverageHighLow
Temperature-10.2 °C-7.8 °C (5:53 am)-16 °C (11:44 pm)
Dewpoint-13.8 °C-10.6 °C (8:53 am)-19.4 °C (6:53 pm)
Humidity74.9 %88 % (10:53 am)59 % (1:53 am)
Barometer1016.3 hPa1020.7 hPa (11:53 pm)1013.5 hPa (1:09 pm)
Wind Speed15.6 km/h33.3 km/h (8:58 am)
Wind Gust44.4 km/h (4:53 pm)
Weather ElementAverage
Visibility6.8 km
Wind DirectionWNW (283.5 °)

Weather ElementTotal
Precipitation1.02 mm
Heating Degree Days30.2 (Base 18.3)
Averaged from 75 records on 21 January, 2013
WEATHER CONDITIONS BREAKOUT
WIND DIRECTION BREAKOUT
WEATHER BY HOUR - 21 JANUARY, 2013
[ °F ]   °C
Local TimeTemperatureDewpointHumidityBarometerVisibilityWind DirectionWind SpeedGust SpeedPrecipitationEventsConditions
1:53 AM-8.3 °C-15 °C59 %1018.6 hPa16.1 kmWNW (300°)7.4 km/hOvercast
2:53 AM-8.9 °C-13.9 °C68 %1020 hPa16.1 kmCalmOvercast
3:53 AM-8.9 °C-13.3 °C71 %1019 hPa16.1 kmCalmOvercast
4:15 AM-8 °C-13 °C68 %1016.9 hPa16.1 kmSW (230°)9.3 km/hOvercast
4:53 AM-8.3 °C-12.8 °C71 %1017.9 hPa16.1 kmSW (230°)7.4 km/hOvercast
5:08 AM-8 °C-13 °C68 %1016.3 hPa16.1 kmSW (230°)9.3 km/hOvercast
5:53 AM-7.8 °C-12.2 °C71 %1017.3 hPa16.1 kmSW (230°)14.8 km/hOvercast
6:19 AM-8 °C-12 °C73 %1015.6 hPa16.1 kmSW (230°)13 km/hOvercast
6:53 AM-7.8 °C-11.7 °C74 %1017.3 hPa12.9 kmWSW (240°)16.7 km/h0 mmSnowLight Snow
7:18 AM-8 °C-12 °C73 %1015.2 hPa9.7 kmWSW (240°)20.4 km/h0 mmSnowLight Snow
7:53 AM-7.8 °C-11.7 °C74 %1016.6 hPa9.7 kmWSW (250°)18.5 km/h0 mmSnowLight Snow
8:28 AM-8 °C-11 °C79 %1014.9 hPa6.4 kmWSW (250°)11.1 km/h0 mmSnowLight Snow
8:33 AM-8 °C-11 °C79 %1015.2 hPa2.9 kmWest (260°)16.7 km/h0 mmSnowLight Snow
8:37 AM-8 °C-11 °C79 %1014.9 hPa1.3 kmWSW (250°)20.4 km/h0 mmSnowLight Snow
8:53 AM-8.3 °C-10.6 °C84 %1016.6 hPa0.8 kmWest (260°)24.1 km/h0 mmFog-SnowLight Snow
8:58 AM-8 °C-11 °C79 %1015.2 hPa1.3 kmWest (270°)33.3 km/h42.6 km/h0 mmSnowLight Snow
9:21 AM-9 °C-11 °C86 %1015.2 hPa1.6 kmWNW (290°)13 km/h0 mmSnowLight Snow
9:26 AM-9 °C-11 °C86 %1014.9 hPa3.2 kmWNW (290°)9.3 km/h0 mmSnowLight Snow
9:34 AM-9 °C-12 °C79 %1015.2 hPa8 kmWest (270°)13 km/h0 mmSnowLight Snow
9:43 AM-9 °C-11 °C86 %1015.2 hPa2.9 kmWNW (290°)9.3 km/h0 mmSnowLight Snow
9:49 AM-9 °C-11 °C86 %1015.2 hPa1.3 kmWest (280°)9.3 km/h0 mmSnowLight Snow
9:53 AM-8.9 °C-11.1 °C84 %1016.6 hPa1.3 kmWest (280°)11.1 km/h0 mmSnowLight Snow
9:59 AM-8 °C-11 °C79 %1015.2 hPa2.4 kmWest (270°)11.1 km/h0 mmSnowLight Snow
10:06 AM-9 °C-12 °C79 %1015.2 hPa1.3 kmWest (280°)14.8 km/h0 mmSnowLight Snow
10:16 AM-9 °C-12 °C79 %1015.2 hPa2.4 kmWNW (290°)11.1 km/h0 mmSnowLight Snow
10:23 AM-8 °C-11 °C79 %1015.2 hPa4.8 kmWest (270°)13 km/h0 mmSnowLight Snow
10:30 AM-8 °C-11 °C79 %1014.9 hPa2.9 kmWest (260°)14.8 km/h0 mmSnowLight Snow
10:53 AM-8.9 °C-10.6 °C88 %1016.6 hPa0.3 kmNW (320°)9.3 km/h0 mmFog-SnowSnow
11:00 AM-9 °C-11 °C86 %1014.9 hPa0.8 kmNNW (330°)11.1 km/h0 mmFog-SnowSnow
11:16 AM-9 °C-12 °C79 %1014.9 hPa1.6 kmNW (310°)14.8 km/h0.25 mmSnowLight Snow
11:35 AM-9 °C-12 °C79 %1014.6 hPa2.4 kmNW (310°)14.8 km/h0.25 mmSnowLight Snow
11:43 AM-9 °C-12 °C79 %1014.6 hPa4 kmNNW (330°)11.1 km/h0.25 mmSnowLight Snow
11:53 AM-9.4 °C-12.8 °C77 %1015.9 hPa6.4 kmNW (320°)13 km/h0.25 mmSnowLight Snow
12:03 PM-9 °C-13 °C73 %1014.2 hPa2.9 kmWNW (300°)13 km/h0 mmSnowLight Snow
12:08 PM-9 °C-12 °C79 %1014.2 hPa1.3 kmWNW (300°)14.8 km/h0 mmSnowLight Snow
12:26 PM-9 °C-12 °C79 %1014.2 hPa0.8 kmNNW (330°)20.4 km/h0 mmFog-SnowSnow
12:39 PM-9 °C-13 °C73 %1013.9 hPa1.6 kmNW (320°)16.7 km/h0 mmSnowLight Snow
12:44 PM-9 °C-13 °C73 %1013.9 hPa3.2 kmNW (320°)14.8 km/h0 mmSnowLight Snow
12:51 PM-9 °C-13 °C73 %1013.9 hPa8 kmWNW (300°)16.7 km/h0 mmHaze
12:53 PM-8.9 °C-12.8 °C74 %1015.6 hPa9.7 kmWNW (300°)14.8 km/h0 mmHaze
1:09 PM-8 °C-13 °C68 %1013.5 hPa11.3 kmNW (310°)18.5 km/h31.5 km/hOvercast
1:29 PM-9 °C-13 °C73 %1013.5 hPa4 kmNNW (330°)18.5 km/h0 mmSnowLight Snow
1:38 PM-9 °C-13 °C73 %1013.5 hPa2.4 kmNW (320°)18.5 km/h0 mmSnowLight Snow
1:53 PM-9.4 °C-13.3 °C74 %1015.2 hPa2.4 kmNW (320°)13 km/h0 mmSnowLight Snow
2:06 PM-10 °C-13 °C79 %1013.9 hPa1.3 kmNW (320°)22.2 km/h0 mmSnowLight Snow
2:14 PM-10 °C-14 °C73 %1013.9 hPa2.4 kmNW (310°)18.5 km/h0 mmSnowLight Snow
2:31 PM-10 °C-13 °C79 %1014.2 hPa1.3 kmNW (310°)14.8 km/h31.5 km/h0 mmSnowLight Snow
2:41 PM-9 °C-13 °C73 %1014.2 hPa2.9 kmWNW (300°)16.7 km/h0 mmSnowLight Snow
2:43 PM-9 °C-14 °C68 %1014.2 hPa6.4 kmWNW (300°)18.5 km/h0 mmHaze
2:50 PM-10 °C-14 °C73 %1014.2 hPa2.9 kmNW (310°)18.5 km/h0 mmSnowLight Snow
2:53 PM-10 °C-13.9 °C74 %1015.9 hPa1.6 kmNW (320°)20.4 km/h0 mmSnowLight Snow
3:02 PM-10 °C-13 °C79 %1014.6 hPa1.3 kmNNW (330°)18.5 km/h0 mmSnowLight Snow
3:10 PM-10 °C-14 °C73 %1014.6 hPa2.9 kmNW (310°)22.2 km/h29.6 km/h0 mmSnowLight Snow
3:12 PM-10 °C-15 °C67 %1014.6 hPa4.8 kmNW (310°)20.4 km/h29.6 km/h0 mmSnowLight Snow
3:37 PM-11 °C-16 °C67 %1014.9 hPa12.9 kmWNW (300°)22.2 km/h31.5 km/h0 mmOvercast
3:53 PM-10.6 °C-15.6 °C67 %1016.9 hPa11.3 kmWNW (300°)24.1 km/h40.7 km/h0 mmOvercast
4:53 PM-11.7 °C-16.7 °C67 %1017.6 hPa8 kmWNW (300°)29.6 km/h44.4 km/h0 mmSnowLight Snow
5:02 PM-12 °C-16 °C73 %1015.9 hPa2.4 kmWNW (290°)25.9 km/h38.9 km/h0 mmSnowLight Snow
5:12 PM-12 °C-17 °C67 %1015.9 hPa6.4 kmWNW (290°)27.8 km/h40.7 km/h0 mmSnowLight Snow
5:26 PM-12 °C-18 °C62 %1016.3 hPa16.1 kmWest (280°)31.5 km/h37 km/h0 mmScattered Clouds
5:53 PM-12.2 °C-17.8 °C64 %1017.9 hPa16.1 kmNW (310°)16.7 km/h0 mmMostly Cloudy
6:53 PM-13.3 °C-19.4 °C61 %1018.6 hPa16.1 kmWNW (290°)18.5 km/h33.3 km/h0 mmClear
7:53 PM-13.9 °C-18.9 °C67 %1019.3 hPa16.1 kmWNW (300°)14.8 km/hScattered Clouds
8:15 PM-14 °C-18 °C72 %1017.6 hPa12.9 kmWNW (290°)14.8 km/hMostly Cloudy
8:43 PM-14 °C-18 °C72 %1017.6 hPa9.7 kmWNW (290°)14.8 km/h0 mmSnowLight Snow
8:53 PM-13.9 °C-17.2 °C77 %1019.6 hPa6.4 kmWNW (290°)13 km/h0 mmSnowLight Snow
9:04 PM-14 °C-17 °C79 %1017.9 hPa4 kmWNW (300°)11.1 km/h0 mmSnowLight Snow
9:15 PM-14 °C-17 °C79 %1017.9 hPa4.8 kmWNW (300°)11.1 km/h0 mmSnowLight Snow
9:53 PM-15 °C-18.9 °C73 %1020 hPa14.5 kmWNW (300°)13 km/h0 mmOvercast
10:08 PM-15 °C-18 °C78 %1018.3 hPa6.4 kmWNW (300°)13 km/h0 mmSnowLight Snow
10:53 PM-15 °C-18.3 °C76 %1020.3 hPa16.1 kmWNW (300°)13 km/h0 mmOvercast
11:25 PM-15 °C-18 °C78 %1019 hPa4 kmWNW (300°)11.1 km/h0 mmSnowLight Snow
11:27 PM-15 °C-18 °C78 %1019 hPa4.8 kmWNW (300°)14.8 km/h0 mmSnowLight Snow
11:44 PM-16 °C-19 °C78 %1019 hPa9.7 kmWNW (300°)13 km/h0 mmHaze
11:53 PM-15.6 °C-18.9 °C76 %1020.7 hPa14.5 kmWNW (300°)16.7 km/h0 mmOvercast
Hourly data recorded from KARB, located 0 kilometers away from Ann Arbor, Michigan







STORIES FROM OUR PARTNERS